TimeEDT,TemperatureF,Dew PointF,Humidity,Sea Level PressureIn,VisibilityMPH,Wind Direction,Wind SpeedMPH,Gust SpeedMPH,PrecipitationIn,Events,Conditions,WindDirDegrees,DateUTC
12:54 AM,43.0,25.0,49,30.02,10.0,NW,6.9,-,N/A,,Clear,310,2013-03-27 04:54:00
1:54 AM,43.0,26.1,51,30.02,10.0,WNW,8.1,-,N/A,,Clear,290,2013-03-27 05:54:00
2:54 AM,42.1,26.1,53,30.01,10.0,North,-9999.0,-,N/A,,Clear,0,2013-03-27 06:54:00
3:54 AM,41.0,26.1,55,30.02,10.0,NW,8.1,-,N/A,,Clear,310,2013-03-27 07:54:00
4:54 AM,39.9,26.1,58,30.02,10.0,WNW,6.9,-,N/A,,Mostly Cloudy,300,2013-03-27 08:54:00
5:54 AM,41.0,26.1,55,30.04,10.0,WNW,11.5,-,N/A,,Partly Cloudy,300,2013-03-27 09:54:00
6:54 AM,39.9,26.1,58,30.06,10.0,WNW,8.1,-,N/A,,Clear,300,2013-03-27 10:54:00
7:54 AM,41.0,26.1,55,30.08,10.0,WNW,8.1,-,N/A,,Clear,300,2013-03-27 11:54:00
8:54 AM,44.1,27.0,51,30.10,10.0,NW,9.2,-,N/A,,Clear,310,2013-03-27 12:54:00
9:54 AM,46.9,25.0,42,30.10,10.0,NW,12.7,-,N/A,,Clear,310,2013-03-27 13:54:00
10:54 AM,50.0,25.0,38,30.10,10.0,WNW,12.7,19.6,N/A,,Clear,300,2013-03-27 14:54:00
11:54 AM,51.1,24.1,35,30.09,10.0,Variable,6.9,19.6,N/A,,Clear,0,2013-03-27 15:54:00
12:54 PM,53.1,27.0,37,30.08,10.0,West,13.8,-,0.00,,Partly Cloudy,260,2013-03-27 16:54:00
1:54 PM,52.0,25.0,35,30.07,10.0,West,13.8,20.7,N/A,,Mostly Cloudy,270,2013-03-27 17:54:00
2:54 PM,54.0,24.1,31,30.06,10.0,WNW,13.8,21.9,N/A,,Mostly Cloudy,300,2013-03-27 18:54:00
3:54 PM,53.1,23.0,31,30.05,10.0,NW,15.0,26.5,N/A,,Overcast,310,2013-03-27 19:54:00
4:54 PM,52.0,21.9,31,30.06,10.0,WNW,11.5,21.9,N/A,,Overcast,300,2013-03-27 20:54:00
5:54 PM,51.1,21.9,32,30.07,10.0,NW,16.1,24.2,N/A,,Overcast,320,2013-03-27 21:54:00
6:54 PM,50.0,21.9,33,30.09,10.0,NNW,4.6,-,N/A,,Overcast,340,2013-03-27 22:54:00
7:54 PM,48.9,23.0,36,30.11,10.0,WNW,8.1,-,N/A,,Overcast,300,2013-03-27 23:54:00
8:54 PM,48.0,21.0,34,30.12,10.0,NW,8.1,-,N/A,,Mostly Cloudy,310,2013-03-28 00:54:00
9:54 PM,46.9,21.0,36,30.14,10.0,WNW,8.1,-,N/A,,Clear,300,2013-03-28 01:54:00
10:54 PM,45.0,21.9,40,30.14,10.0,WNW,6.9,-,N/A,,Clear,300,2013-03-28 02:54:00
11:54 PM,45.0,23.0,42,30.14,10.0,NW,9.2,-,N/A,,Clear,310,2013-03-28 03:54:00